Printer-friendly version

IAU Minor Planet Center

Minor Planet Center

MPEC 2002-V03 : S/2001 J 1

The following Minor Planet Electronic Circular may be linked-to from your own Web pages, but must not otherwise be redistributed electronically.


Read MPEC 2002-V02 Read MPEC 2002-V04


M.P.E.C. 2002-V03                                Issued 2002 Nov. 1, 15:27 UT

     The Minor Planet Electronic Circulars contain information on unusual
         minor planets and routine data on comets.  They are published
   on behalf of Commission 20 of the International Astronomical Union by the
          Minor Planet Center, Smithsonian Astrophysical Observatory,
                          Cambridge, MA 02138, U.S.A.

             Prepared using the Tamkin Foundation Computer Network

                              MPC@CFA.HARVARD.EDU
          URL http://cfa-www.harvard.edu/iau/mpc.html  ISSN 1523-6714

                                  S/2001 J 1

                           Revision to MPEC 2002-J54

Observations:
    SK01J010  C2002 10 31.56058 09 10 32.76 +15 52 41.7          22.9 R      568
    SK01J010  C2002 10 31.59478 09 10 33.69 +15 52 38.6          23.0 R      568
    SK01J010  C2002 11 01.57780 09 11 00.31 +15 50 56.3          23.0 R      568
    SK01J010  C2002 11 01.58546 09 11 00.51 +15 50 55.7          22.6 R      568

Observer details:
568 Mauna Kea.  Observer S. S. Sheppard.  2.2-m University of Hawaii
    reflector + CCD.

Orbital elements:
S/2001 J 1
Epoch 2002 Nov. 22.0 TT = JDT 2452600.5                 MPC
M 284.28915              (2000.0)            P               Q
n   0.46196886     Peri.   57.61622     -0.71461825     -0.52001990
a   0.1631914      Node   273.23351     -0.68663106     +0.64924033
e   0.4586342      Incl.  152.05566     +0.13363584     +0.55503720
P   2.13           H   15.4           P/d   779.27
Residuals in seconds of arc
011210 568  0.0   0.2-    020108 568  0.1+  0.1-    021031 568  0.5-  0.4-
011210 568  0.2+  0.3-    020108 568  0.1-  0.2-    021031 568  0.3-  0.0
011210 568  0.2+  0.1+    020115 568  0.9+  0.1+    021101 568  0.4+  0.1+
011218 568  0.7-  0.4+    020210 568  0.0   0.1-    021101 568  0.4+  0.3+
011218 568  0.0   0.4+    020210 568  0.5-  0.1-

Ephemeris:
    S/2001 J 1
Date    TT    R. A. (2000) Decl.     Delta     r_J   dR.A. ("/m)  dDecl.m1"/')
2002 10 23    09 06.28   +16 09.3    5.325    0.193  4688-/5.42-  2119-/ 35.3-
2002 11 02    09 11.19   +15 50.2    5.168    0.188  4304-/4.97-  2185-/ 36.4-
2002 11 12    09 15.06   +15 35.7    5.008    0.183  3897-/4.50-  2251-/ 37.5-
2002 11 22    09 17.81   +15 26.6    4.852    0.178  3469-/4.00-  2309-/ 38.5-
2002 12 02    09 19.34   +15 23.5    4.702    0.173  3019-/3.48-  2354-/ 39.2-
2002 12 12    09 19.60   +15 26.9    4.563    0.167  2550-/2.94-  2376-/ 39.6-
2002 12 22    09 18.59   +15 36.7    4.440    0.161  2060-/2.38-  2368-/ 39.5-
2003 01 01    09 16.37   +15 52.6    4.339    0.155  1551-/1.79-  2321-/ 38.7-
2003 01 11    09 13.11   +16 13.8    4.262    0.148  1024-/1.19-  2231-/ 37.2-
2003 01 21    09 09.04   +16 38.7    4.215    0.142   480-/0.56-  2095-/ 34.9-
2003 01 31    09 04.48   +17 05.7    4.199    0.135    77+/0.09+  1914-/ 31.9-
2003 02 10    08 59.81   +17 33.0    4.215    0.128   641+/0.75+  1693-/ 28.2-
2003 02 20    08 55.42   +17 58.6    4.264    0.121  1201+/1.40+  1440-/ 24.0-
2003 03 02    08 51.65   +18 21.1    4.344    0.115  1744+/2.04+  1166-/ 19.4-
2003 03 12    08 48.78   +18 39.3    4.451    0.108  2252+/2.64+   882-/ 14.7-
2003 03 22    08 46.99   +18 52.7    4.583    0.102  2702+/3.17+   597-/ 10.0-
2003 04 01    08 46.36   +19 00.8    4.734    0.097  3070+/3.61+   323-/  5.4-
2003 04 11    08 46.90   +19 03.6    4.900    0.093  3330+/3.91+    64-/  1.1-
2003 04 21    08 48.54   +19 01.1    5.075    0.090  3457+/4.06+   171+/  2.9+
2003 05 01    08 51.20   +18 53.5    5.256    0.088  3438+/4.04+   381+/  6.3+
2003 05 11    08 54.75   +18 41.1    5.437    0.089  3267+/3.83+   563+/  9.4+
2003 05 21    08 59.09   +18 24.0    5.614    0.090  2956+/3.46+   719+/ 12.0+
2003 05 31    09 04.13   +18 02.7    5.781    0.094  2527+/2.95+   852+/ 14.2+
2003 06 10    09 09.78   +17 37.4    5.936    0.098  2008+/2.34+   966+/ 16.1+
2003 06 20    09 15.95   +17 08.6    6.076    0.104  1428+/1.66+  1067+/ 17.8+
2003 06 30    09 22.57   +16 36.4    6.199    0.110   812+/0.94+  1159+/ 19.3+
2003 07 10    09 29.56   +16 01.4    6.301    0.116   178+/0.21+  1246+/ 20.8+

Brian G. Marsden             (C) Copyright 2002 MPC           M.P.E.C. 2002-V03

Read MPEC 2002-V02 Read MPEC 2002-V04


Our Web policy. Index to the CBAT/MPC/ICQ pages.


Valid HTML 4.01!